Dennis, MA (02638)

4:38 AM EDT on August 05, 2015 (GMT -0400)
Scargo Hill Dennis MA | | Change Station
CLOSE
Current Station
Personal Weather Station
Location: Dennis, MA
Elevation: 133 ft
Nearby Weather Stations

Elev 133 ft 41.74 °N, 70.18 °W | Updated 2 seconds ago

Clear
Clear
69.1 °F
Feels Like 69.1 °F
N
0.0
Wind Variable Wind from SW
Gusts 3.8 mph

Today
High -- | Low -- °F
--% Chance of Precip.
Yesterday
High -- | Low -- °F
Precip. -- in
5:38 AM 7:54 PM
Waning Gibbous, 69% visible
Pressure 29.88 in
Visibility 10.0 miles
Clouds Clear
Dew Point 69 °F
Humidity 99%
Rainfall 0.00 in
Snow Depth Not available.
UV 0 out of 12
Pollen 5.70 out of 12
Air Quality Not available.
Flu Activity Not available.
METAR KHYA 050756Z AUTO 29004KT 10SM CLR 21/18 A2987 RMK AO2 SLP117 T02110183 $

More Conditions Fewer Conditions

Pressure 29.88 in
Visibility 10.0 miles
Clouds Clear
Dew Point 69 °F
Humidity 99%
Rainfall 0.00 in
Snow Depth Not available.
UV 0 out of 12
Pollen 5.70 out of 12
Air Quality Not available.
Flu Activity Not available.
METAR KHYA 050756Z AUTO 29004KT 10SM CLR 21/18 A2987 RMK AO2 SLP117 T02110183 $

More Conditions Fewer Conditions

10-Day Weather Forecast

×

Almanac

Astronomy

Aug. 05, 2015 Rise Set
Actual Time
Civil Twilight
Nautical Twilight
Astronomical Twilight
Moon
Length of Visible Light
Length of Day
Tomorrow will be .
, % of the Moon is Illuminated

Today's Extremes

State Highs State Lows

Community

WunderPhotos

Upload Photos

1,844,105 photos uploaded!

WunderBlogs® & News

Nearby

Air Quality

  Air Quality AQ Index Pollutant
Not available.

Snow Depth

Station Depth Elevation

Earthquake Activity

City Distance Mag. Time & Date
Minimum magnitude displayed is 2.5.

Coastal Water Temperatures

Place Temperature

Stations

Nearby Weather Stations

Station Location Temp. Windchill Dew Point Humidity Wind Precip. Elev Updated Type